Change the Weather History Date:

Thursday, October 2, 2014

  Actual Average Record
Temperature  
Mean Temperature 68 °F 57 °F  
Max Temperature 76 °F 68 °F 83 °F (2000)
Min Temperature 59 °F 46 °F 32 °F (2003)
Degree Days  
Heating Degree Days 0 9  
Month to date heating degree days 8 18  
Since 1 July heating degree days 179 148  
Cooling Degree Days 3 1  
Month to date cooling degree days 3 2  
Year to date cooling degree days 611 704  
Growing Degree Days 8 (Base 50)    
Moisture  
Dew Point 61 °F    
Average Humidity 87    
Maximum Humidity 100    
Minimum Humidity 66    
Precipitation  
Precipitation 1.63 in 0.09 in 1.63 in (2014)
Month to date precipitation 1.63 0.19  
Year to date precipitation 33.37 28.94  
Sea Level Pressure  
Sea Level Pressure 29.82 in    
Wind  
Wind Speed 7 mph (SSE)    
Max Wind Speed 17 mph    
Max Gust Speed 23 mph    
Visibility 7 miles    
Events Fog , Rain    
T = Trace of Precipitation, MM = Missing Value Source: NWS Daily Summary

Daily Weather History Graph

Daily Weather History Graph

Search for Another Location

Airport or City:

Trip Planner

Search our weather history database for the weather conditions in past years. The results will help you decide how hot, cold, wet, or windy it might be!

Date:

Astronomy

Oct. 02, 2014 Rise Set
Actual Time 6:45 AM CDT 6:28 PM CDT
Civil Twilight 6:18 AM CDT 6:55 PM CDT
Nautical Twilight 5:46 AM CDT 7:27 PM CDT
Astronomical Twilight 5:13 AM CDT 8:00 PM CDT
Moon 2:37 PM CDT (10/2) No Moon Set
Length of Visible Light 12h 37m
Length of Day
11h 42m
First Quarter, 60% of the Moon is Illuminated
Oct 2
First Quarter
Oct 8
Full
Oct 15
Last Quarter
Oct 23
New
Oct 30
First Quarter

Hourly Weather History & Observations

Time (CDT) Temp. Windchill Dew Point Humidity Pressure Visibility Wind Dir Wind Speed Gust Speed Precip Events Conditions
12:05 AM 50.0 °F - 46.0 °F 86% 30.03 in 10.0 mi Calm Calm - N/A   Scattered Clouds
12:56 AM 59.0 °F - 51.1 °F 75% 29.93 in 10.0 mi ENE 3.5 mph - N/A   Overcast
1:56 AM 59.0 °F - 53.1 °F 81% 29.93 in 10.0 mi East 4.6 mph - 0.00 in   Overcast
2:56 AM 61.0 °F - 54.0 °F 78% 29.90 in 10.0 mi East 5.8 mph - 0.00 in Rain Light Rain
3:56 AM 61.0 °F - 54.0 °F 78% 29.91 in 10.0 mi SE 4.6 mph - 0.00 in   Overcast
4:56 AM 61.0 °F - 55.0 °F 81% 29.91 in 10.0 mi ESE 6.9 mph - 0.00 in Rain Light Rain
5:56 AM 61.0 °F - 55.0 °F 81% 29.91 in 10.0 mi ESE 5.8 mph - 0.00 in   Clear
6:51 AM 42.8 °F 40.1 °F 42.8 °F 100% 30.03 in 0.2 mi ESE 4.6 mph - N/A Fog Fog
6:56 AM 62.1 °F - 55.9 °F 80% 29.91 in 9.0 mi SSE 12.7 mph - N/A   Partly Cloudy
7:56 AM 62.1 °F - 57.9 °F 86% 29.91 in 6.0 mi South 5.8 mph - 0.00 in   Scattered Clouds
8:56 AM 64.0 °F - 60.1 °F 87% 29.91 in 7.0 mi SE 6.9 mph - N/A   Overcast
9:56 AM 66.0 °F - 62.1 °F 87% 29.91 in 7.0 mi Variable 4.6 mph - N/A   Overcast
10:56 AM 66.9 °F - 63.0 °F 87% 29.90 in 9.0 mi South 5.8 mph - N/A   Overcast
11:56 AM 70.0 °F - 64.0 °F 81% 29.88 in 10.0 mi SSW 6.9 mph - N/A   Overcast
12:56 PM 73.0 °F - 63.0 °F 71% 29.86 in 10.0 mi SSW 12.7 mph - N/A   Mostly Cloudy
1:25 PM 75.0 °F - 63.0 °F 66% 29.86 in 10.0 mi SSW 11.5 mph - N/A   Mostly Cloudy
1:56 PM 75.0 °F - 64.0 °F 69% 29.84 in 10.0 mi SW 8.1 mph - N/A   Mostly Cloudy
2:56 PM 75.9 °F - 64.0 °F 67% 29.81 in 10.0 mi SSW 5.8 mph - N/A   Mostly Cloudy
3:47 PM 73.9 °F - 64.9 °F 73% 29.82 in 10.0 mi WSW 8.1 mph - 0.00 in Rain Light Rain
3:56 PM 73.0 °F - 66.0 °F 79% 29.82 in 7.0 mi WSW 8.1 mph - 0.02 in Rain Light Rain
4:10 PM 72.0 °F - 66.0 °F 81% 29.82 in 7.0 mi SSW 5.8 mph - 0.02 in Rain Light Rain
4:56 PM 70.0 °F - 66.9 °F 90% 29.77 in 10.0 mi SE 6.9 mph - 0.03 in Rain Light Rain
5:56 PM 69.1 °F - 66.0 °F 90% 29.79 in 10.0 mi South 5.8 mph 16.1 mph 0.00 in Rain Light Rain
6:22 PM 68.0 °F - 66.0 °F 93% 29.82 in 1.8 mi South 11.5 mph 20.7 mph 0.16 in Rain Heavy Rain
6:40 PM 66.9 °F - 66.0 °F 97% 29.80 in 3.0 mi South 3.5 mph - 0.33 in Rain Light Rain
6:56 PM 66.9 °F - 64.9 °F 93% 29.77 in 10.0 mi ESE 4.6 mph - 0.34 in Rain Light Rain
7:56 PM 66.9 °F - 64.9 °F 93% 29.76 in 7.0 mi SSE 9.2 mph - 0.03 in Rain Light Rain
8:04 PM 66.9 °F - 64.9 °F 93% 29.78 in 8.0 mi South 5.8 mph - 0.01 in Rain Light Rain
8:12 PM 64.9 °F - 63.0 °F 93% 29.75 in 2.5 mi ESE 4.6 mph - 0.11 in Rain Heavy Rain
8:18 PM 64.9 °F - 63.0 °F 93% 29.75 in 3.0 mi SE 5.8 mph - 0.11 in Rain Light Rain
8:56 PM 64.0 °F - 62.1 °F 93% 29.75 in 9.0 mi SW 6.9 mph - 0.12 in Rain Light Rain
9:27 PM 64.9 °F - 63.0 °F 93% 29.76 in 9.0 mi SW 5.8 mph - 0.02 in Rain Light Rain
9:43 PM 64.9 °F - 63.0 °F 93% 29.78 in 1.8 mi WSW 16.1 mph 23.0 mph 0.25 in Rain Heavy Rain
9:56 PM 64.9 °F - 64.0 °F 97% 29.75 in 1.0 mi WSW 10.4 mph 21.9 mph 0.57 in Rain Heavy Rain
10:06 PM 64.0 °F - 64.0 °F 100% 29.74 in 3.0 mi SSE 9.2 mph - 0.04 in Rain Rain
10:18 PM 64.0 °F - 64.0 °F 100% 29.73 in 7.0 mi ESE 5.8 mph - 0.05 in Rain Light Rain
10:40 PM 64.0 °F - 64.0 °F 100% 29.73 in 5.0 mi SE 9.2 mph - 0.12 in Rain Rain
10:56 PM 64.9 °F - 64.0 °F 97% 29.73 in 3.0 mi South 6.9 mph - 0.20 in Rain Heavy Rain
11:03 PM 64.0 °F - 63.0 °F 96% 29.73 in 2.5 mi South 8.1 mph - 0.06 in Rain Heavy Rain
11:22 PM 64.0 °F - 63.0 °F 96% 29.70 in 5.0 mi ESE 3.5 mph - 0.20 in Rain Rain
11:48 PM 64.0 °F - 63.0 °F 96% 29.67 in 8.0 mi ESE 6.9 mph - 0.24 in Rain Light Rain
11:56 PM 64.0 °F - 63.0 °F 96% 29.66 in 9.0 mi ESE 5.8 mph - 0.24 in Rain Light Rain